Weather History for Richmond Hanover County, VA

Change the Weather History Date:

Wednesday, December 5, 2012

  Actual Average Record
Temperature  
Mean Temperature 53 °F -  
Max Temperature 64 °F 52 °F 81 °F (2001)
Min Temperature 42 °F 30 °F 14 °F (1966)
Degree Days  
Heating Degree Days 12    
Growing Degree Days 3 (Base 50)    
Moisture  
Dew Point 44 °F    
Average Humidity 67    
Maximum Humidity 85    
Minimum Humidity 47    
Precipitation  
Precipitation 0.01 in - - ()
Sea Level Pressure  
Sea Level Pressure 30.16 in    
Wind  
Wind Speed 7 mph (WNW)    
Max Wind Speed 12 mph    
Max Gust Speed 18 mph    
Visibility 10 miles    
Events Rain    
Averages and records for this station are not official NWS values.
T = Trace of Precipitation, MM = Missing Value Source: NWS Daily Summary

Daily Weather History Graph

Daily Weather History Graph

Search for Another Location

Airport:

Trip Planner

Search our weather history database for the weather conditions in past years. The results will help you decide how hot, cold, wet, or windy it might be!

Date:

Astronomy

Dec. 05, 2012 Rise Set
Actual Time 7:10 AM EST 4:50 PM EST
Civil Twilight 6:41 AM EST 5:19 PM EST
Nautical Twilight 6:08 AM EST 5:52 PM EST
Astronomical Twilight 5:36 AM EST 6:24 PM EST
Moon 11:32 PM EST (12/5) 11:37 AM EST (12/5)
Length of Visible Light 10h 38m
Length of Day
9h 40m
Waning Gibbous, 60% of the Moon is Illuminated
Dec 5
Waning Gibbous
Dec 6
Last Quarter
Dec 13
New
Dec 20
First Quarter
Dec 28
Full

Hourly Weather History & Observations

Time (EST) Temp. Windchill Dew Point Humidity Pressure Visibility Wind Dir Wind Speed Gust Speed Precip Events Conditions
12:54 AM 64.0 °F - 54.0 °F 70% 30.08 in 10.0 mi SSW 11.5 mph - N/A   Overcast
1:54 AM 64.0 °F - 54.0 °F 70% 30.07 in 10.0 mi SSW 9.2 mph 18.4 mph N/A   Overcast
2:54 AM 63.0 °F - 54.0 °F 72% 30.07 in 10.0 mi SW 9.2 mph - N/A   Scattered Clouds
3:54 AM 62.1 °F - 54.0 °F 75% 30.06 in 10.0 mi SW 11.5 mph - N/A   Mostly Cloudy
4:54 AM 61.0 °F - 54.0 °F 78% 30.05 in 10.0 mi SSW 8.1 mph - N/A   Clear
5:54 AM 60.1 °F - 54.0 °F 80% 30.06 in 10.0 mi SW 6.9 mph - N/A   Scattered Clouds
6:54 AM 60.1 °F - 54.0 °F 80% 30.11 in 10.0 mi Variable 5.8 mph - N/A   Overcast
7:54 AM 60.1 °F - 54.0 °F 80% 30.13 in 10.0 mi Variable 3.5 mph - N/A   Mostly Cloudy
9:54 AM 54.0 °F - 48.0 °F 80% 30.19 in 10.0 mi North 4.6 mph - 0.01 in Rain Light Rain
10:54 AM 55.0 °F - 46.9 °F 74% 30.19 in 10.0 mi Calm Calm - 0.00 in Rain Light Rain
11:54 AM 57.0 °F - 45.0 °F 64% 30.17 in 10.0 mi Calm Calm - 0.00 in   Mostly Cloudy
12:54 PM 57.9 °F - 44.1 °F 60% 30.16 in 10.0 mi NW 6.9 mph - N/A   Clear
1:54 PM 59.0 °F - 43.0 °F 55% 30.15 in 10.0 mi WNW 4.6 mph - N/A   Clear
2:54 PM 59.0 °F - 41.0 °F 51% 30.14 in 10.0 mi Variable 3.5 mph - N/A   Clear
3:54 PM 60.1 °F - 39.9 °F 47% 30.15 in 10.0 mi Variable 3.5 mph - N/A   Clear
4:54 PM 52.0 °F - 42.1 °F 69% 30.16 in 10.0 mi Calm Calm - N/A   Clear
5:54 PM 45.0 °F - 39.0 °F 80% 30.18 in 10.0 mi Calm Calm - N/A   Clear
6:54 PM 42.1 °F - 37.9 °F 85% 30.20 in 10.0 mi Calm Calm - N/A   Clear
7:54 PM 50.0 °F - 30.9 °F 48% 30.24 in 10.0 mi North 3.5 mph - N/A   Clear
8:54 PM 48.0 °F - 30.9 °F 52% 30.26 in 10.0 mi North 9.2 mph - N/A   Clear
9:54 PM 46.0 °F 44.8 °F 30.0 °F 54% 30.27 in 10.0 mi North 3.5 mph - N/A   Clear
10:54 PM 44.1 °F 41.5 °F 30.0 °F 58% 30.28 in 10.0 mi NNE 4.6 mph - N/A   Clear
11:54 PM 42.1 °F 38.4 °F 28.9 °F 60% 30.28 in 10.0 mi NNE 5.8 mph - N/A   Clear